{"data":{"norad_id":44207,"epoch":"2026-05-24T11:24:43.150752Z","epoch_age_seconds":120040,"freshness":"FRESH","line1":"1 44207U 19024A   26144.47549943  .00001330  00000+0  71211-4 0  9997","line2":"2 44207  97.4801 148.7277 0001516 111.8799 248.2596 15.16745604 98544","mean_motion":15.16745604,"eccentricity":0.0001516,"inclination_deg":97.4801,"raan_deg":148.7277,"arg_perigee_deg":111.8799,"mean_anomaly_deg":248.2596,"bstar":7.1211e-5,"rev_number":9854,"period_min":94.940113635563,"perigee_km":514.63903562822,"apogee_km":516.72924219754,"semimajor_km":6893.8211389129,"source":"CELESTRAK","updated_at":"2026-05-25T13:37:55.962888Z"}}